Location: Beetenbrück
(52.8113°N, 9.5946°E)
Time: 22:20:45
(UTC+00:00)

RESURS DK-1 - Pass Details

Date: 14 April 2026
Orbit: 524 x 530 km, 69.9° (Epoch: 12 May)

Event Time Altitude Azimuth Distance (km) Brightness Sun altitude
Exits shadow 21:52:55 36° 270° (W) 851 3.4 -24.7°
Maximum altitude 21:53:55 44° 310° (NW) 739 3.3 -24.8°
Drops below altitude 10° 21:57:43 10° 24° (NNE) 1,780 5.4 -25.0°
Sets 21:59:59 0° 31° (NNE) 2,674 6.3 -25.1°
